Flag for U.S.A. Weather past 2 weeks in Omaha, Nebraska, U.S.A.

Now
66 °F

Clear.


Feels Like: 66 °F
Forecast: 59 / 76 °F
Wind: 5 mph from North

Location: Millard Airport

Current Time: Jul 28, 2014 at 1:43:20 AM

Latest Report: Jul 28, 2014 at 1:15 AM


Visibility: 10 mi

Pressure: 30.20 "Hg

Humidity: 72%

Dew point: 56 °F

Location of OmahaLocation

Historic Weather in Omaha — Graph

°F

Omaha temperature yesterday

Maximum temperature yesterday: 82 °F (at 3:55 PM)
Minimum temperature yesterday: 67 °F (at 6:35 AM)
Average temperature yesterday: 75 °F

Past Weeks' High & Low Weather Summary

 TemperatureHumidityPressure
High96 °F (Jul 21, 4:55 PM)96% (Jul 13, 2:35 AM)30.26 "Hg (Jul 13, 2:35 AM)
Low54 °F (Jul 15, 6:15 AM)37% (Jul 17, 5:15 PM)29.72 "Hg (Jul 25, 1:55 PM)
Average75 °F68%29.99 "Hg
* Reported Jul 13 12:15 AM — Jul 28 12:55 AM, Omaha, Weather by CustomWeather, © 2014

Note: Actual official high and low records may vary slightly from our data, if they occured in-between our weather recording intervals... More about our weather records

Advertising

Omaha weather history for previous 24 hours

 ConditionsComfort  
Time TempWeatherWind HumidityBarometerVisibility
12:55 AM
Jul 28
66 °FClear.5 mph70%30.20 "Hg10 mi
12:35 AM67 °FClear.5 mph71%30.20 "Hg10 mi
12:15 AM68 °FClear.5 mph69%30.20 "Hg10 mi
11:55 PM
Jul 27
68 °FClear.3 mph69%30.19 "Hg10 mi
11:35 PM69 °FClear.5 mph68%30.18 "Hg10 mi
11:15 PM70 °FClear.7 mph66%30.18 "Hg10 mi
10:55 PM72 °FClear.5 mph62%30.17 "Hg10 mi
10:35 PM71 °FClear.6 mph63%30.17 "Hg10 mi
10:15 PM73 °FClear.6 mph59%30.16 "Hg10 mi
9:15 PM74 °FSunny.6 mph56%30.13 "Hg10 mi
8:55 PM74 °FSunny.3 mph55%30.13 "Hg10 mi
8:15 PM76 °FSunny.7 mph52%30.12 "Hg10 mi
7:55 PM77 °FSunny.5 mph51%30.12 "Hg10 mi
7:35 PM78 °FSunny.8 mph49%30.11 "Hg10 mi
7:15 PM78 °FScattered clouds.10 mph50%30.11 "Hg10 mi
6:15 PM80 °FScattered clouds.13 mph46%30.11 "Hg10 mi
5:55 PM80 °FScattered clouds.14 mph45%30.10 "Hg10 mi
5:35 PM80 °FScattered clouds.7 mph46%30.10 "Hg10 mi
5:15 PM81 °FScattered clouds.17 mph44%30.10 "Hg10 mi
4:55 PM81 °FSunny.20 mph43%30.09 "Hg10 mi
4:35 PM81 °FSunny.14 mph43%30.09 "Hg10 mi
4:15 PM81 °FSunny.17 mph42%30.09 "Hg10 mi
3:55 PM82 °FScattered clouds.12 mph44%30.09 "Hg10 mi
3:15 PM81 °FSunny.12 mph44%30.09 "Hg10 mi
2:55 PM81 °FScattered clouds.21 mph46%30.09 "Hg10 mi
2:15 PM80 °FSunny.16 mph47%30.09 "Hg10 mi
1:55 PM80 °FSunny.16 mph45%30.09 "Hg10 mi
1:35 PM80 °FSunny.13 mph45%30.09 "Hg10 mi
1:15 PM80 °FSunny.14 mph45%30.10 "Hg10 mi
12:55 PM80 °FSunny.16 mph46%30.09 "Hg10 mi
12:35 PM79 °FSunny.17 mph46%30.10 "Hg10 mi
12:15 PM79 °FSunny.21 mph48%30.10 "Hg10 mi
10:55 AM78 °FSunny.16 mph50%30.09 "Hg10 mi
10:35 AM76 °FSunny.15 mph55%30.09 "Hg10 mi
10:15 AM76 °FSunny.14 mph54%30.09 "Hg10 mi
9:55 AM76 °FSunny.13 mph54%30.08 "Hg10 mi
9:15 AM74 °FSunny.9 mph55%30.07 "Hg10 mi
8:55 AM74 °FSunny.12 mph55%30.07 "Hg10 mi
8:35 AM73 °FSunny.12 mph56%30.06 "Hg10 mi
8:15 AM72 °FSunny.9 mph61%30.05 "Hg10 mi
7:55 AM70 °FSunny.7 mph68%30.05 "Hg10 mi
7:35 AM69 °FSunny.6 mph74%30.04 "Hg10 mi
7:15 AM68 °FSunny.6 mph78%30.03 "Hg10 mi
6:55 AM68 °FClear.6 mph80%30.02 "Hg10 mi
6:35 AM67 °FClear.5 mph84%30.02 "Hg10 mi
6:15 AM68 °FClear.5 mph84%30.02 "Hg10 mi
5:55 AM70 °FClear.6 mph82%30.01 "Hg10 mi
5:35 AM70 °FClear.5 mph83%30.01 "Hg10 mi
5:15 AM72 °FClear.7 mph81%30.00 "Hg10 mi
4:55 AM72 °FClear.6 mph89%29.99 "Hg10 mi
4:35 AM71 °FClear.5 mph92%29.98 "Hg7 mi
4:15 AM71 °FClear.3 mph92%29.98 "Hg7 mi
3:55 AM73 °FClear.No wind91%29.96 "Hg10 mi
3:15 AM73 °FClear.No wind90%29.96 "Hg10 mi
2:55 AM72 °FClear.5 mph91%29.96 "Hg10 mi
2:35 AM75 °FClear.5 mph86%29.96 "Hg10 mi
2:15 AM76 °FClear.3 mph85%29.95 "Hg10 mi
1:55 AM77 °FClear.No wind83%29.95 "Hg10 mi
1:35 AM78 °FClear.3 mph83%29.95 "Hg10 mi
1:15 AM77 °FClear.5 mph87%29.95 "Hg10 mi
Weather by CustomWeather, © 2014

See weather overviewHow to use our weather pages